TimeCST,TemperatureF,Dew PointF,Humidity,Sea Level PressureIn,VisibilityMPH,Wind Direction,Wind SpeedMPH,Gust SpeedMPH,PrecipitationIn,Events,Conditions,WindDirDegrees,DateUTC
12:15 AM,1.4,-5.8,72,29.89,10.0,SE,9.2,-,N/A,,Unknown,140,2013-12-18 06:15:00
12:35 AM,1.4,-4.0,78,29.87,10.0,SE,9.2,-,N/A,,Unknown,140,2013-12-18 06:35:00
12:55 AM,3.2,-0.4,85,29.86,10.0,SSE,8.1,-,N/A,,Unknown,150,2013-12-18 06:55:00
1:15 AM,5.0,-2.2,72,29.83,10.0,SE,11.5,-,N/A,,Unknown,130,2013-12-18 07:15:00
1:35 AM,5.0,-0.4,78,29.82,10.0,SE,10.4,-,N/A,,Unknown,140,2013-12-18 07:35:00
1:55 AM,6.8,-0.4,72,29.80,10.0,SSE,10.4,-,N/A,,Unknown,150,2013-12-18 07:55:00
2:15 AM,8.6,1.4,73,29.78,10.0,SE,12.7,-,N/A,,Unknown,140,2013-12-18 08:15:00
2:35 AM,8.6,3.2,79,29.77,10.0,SE,11.5,-,N/A,,Unknown,130,2013-12-18 08:35:00
2:55 AM,8.6,6.8,92,29.76,10.0,ESE,10.4,-,N/A,,Unknown,120,2013-12-18 08:55:00
3:15 AM,8.6,3.2,79,29.74,10.0,ESE,11.5,-,N/A,,Unknown,120,2013-12-18 09:15:00
3:35 AM,8.6,5.0,85,29.74,10.0,ESE,10.4,-,N/A,,Unknown,120,2013-12-18 09:35:00
3:55 AM,8.6,3.2,79,29.73,10.0,East,8.1,-,N/A,,Unknown,90,2013-12-18 09:55:00
4:15 AM,6.8,1.4,79,29.71,10.0,East,10.4,-,N/A,,Unknown,100,2013-12-18 10:15:00
4:35 AM,6.8,1.4,79,29.70,10.0,ESE,11.5,-,N/A,,Unknown,120,2013-12-18 10:35:00
4:55 AM,8.6,1.4,73,29.69,10.0,ESE,11.5,-,N/A,,Unknown,110,2013-12-18 10:55:00
5:15 AM,8.6,1.4,73,29.67,10.0,East,12.7,-,N/A,,Unknown,100,2013-12-18 11:15:00
5:35 AM,6.8,-0.4,72,29.65,10.0,East,11.5,-,N/A,,Unknown,100,2013-12-18 11:35:00
5:55 AM,6.8,1.4,79,29.63,10.0,ESE,10.4,-,N/A,,Unknown,110,2013-12-18 11:55:00
6:15 AM,6.8,1.4,79,29.61,10.0,ESE,12.7,-,N/A,,Unknown,120,2013-12-18 12:15:00
6:35 AM,8.6,1.4,73,29.60,10.0,ESE,11.5,-,N/A,,Unknown,120,2013-12-18 12:35:00
6:55 AM,8.6,1.4,73,29.58,10.0,ESE,13.8,-,N/A,,Unknown,120,2013-12-18 12:55:00
7:15 AM,8.6,3.2,79,29.60,10.0,ESE,8.1,-,N/A,,Unknown,120,2013-12-18 13:15:00
7:35 AM,8.6,1.4,73,29.59,10.0,East,9.2,-,N/A,,Unknown,100,2013-12-18 13:35:00
7:55 AM,8.6,3.2,79,29.58,10.0,ESE,9.2,-,N/A,,Unknown,110,2013-12-18 13:55:00
8:15 AM,8.6,1.4,73,29.58,10.0,ESE,9.2,-,N/A,,Unknown,120,2013-12-18 14:15:00
8:35 AM,10.4,1.4,67,29.57,10.0,SE,11.5,-,N/A,,Unknown,130,2013-12-18 14:35:00
8:55 AM,10.4,3.2,73,29.57,10.0,SE,9.2,-,N/A,,Unknown,130,2013-12-18 14:55:00
9:15 AM,10.4,3.2,73,29.56,10.0,SE,9.2,-,N/A,,Unknown,130,2013-12-18 15:15:00
9:35 AM,10.4,3.2,73,29.56,10.0,ESE,8.1,-,N/A,,Unknown,120,2013-12-18 15:35:00
9:55 AM,10.4,3.2,73,29.56,10.0,SE,8.1,-,N/A,,Unknown,130,2013-12-18 15:55:00
10:15 AM,12.2,8.6,85,29.56,10.0,SSE,5.8,-,N/A,,Unknown,150,2013-12-18 16:15:00
10:35 AM,15.8,10.4,79,29.58,10.0,South,3.5,-,N/A,,Unknown,170,2013-12-18 16:35:00
10:55 AM,17.6,8.6,68,29.57,10.0,South,8.1,-,N/A,,Unknown,180,2013-12-18 16:55:00
11:15 AM,17.6,12.2,79,29.58,10.0,South,8.1,-,N/A,,Unknown,190,2013-12-18 17:15:00
11:35 AM,19.4,12.2,74,29.58,10.0,SSW,9.2,-,N/A,,Unknown,210,2013-12-18 17:35:00
11:55 AM,21.2,12.2,68,29.57,10.0,SSW,11.5,-,N/A,,Unknown,210,2013-12-18 17:55:00
12:15 PM,19.4,12.2,74,29.56,10.0,SSW,8.1,-,N/A,,Unknown,210,2013-12-18 18:15:00
12:35 PM,19.4,12.2,74,29.55,10.0,South,5.8,-,N/A,,Unknown,190,2013-12-18 18:35:00
12:55 PM,19.4,12.2,74,29.55,10.0,South,6.9,-,N/A,,Unknown,190,2013-12-18 18:55:00
1:15 PM,19.4,14.0,80,29.54,10.0,SW,4.6,-,N/A,,Unknown,220,2013-12-18 19:15:00
1:35 PM,21.2,12.2,68,29.54,10.0,WSW,4.6,-,N/A,,Unknown,250,2013-12-18 19:35:00
1:55 PM,21.2,12.2,68,29.54,10.0,Calm,Calm,-,N/A,,Unknown,0,2013-12-18 19:55:00
2:15 PM,19.4,12.2,74,29.55,10.0,West,6.9,-,N/A,,Unknown,260,2013-12-18 20:15:00
2:35 PM,21.2,12.2,68,29.58,10.0,West,8.1,-,N/A,,Unknown,270,2013-12-18 20:35:00
2:55 PM,21.2,12.2,68,29.60,10.0,West,11.5,-,N/A,,Unknown,280,2013-12-18 20:55:00
3:15 PM,19.4,12.2,74,29.61,10.0,WNW,11.5,-,N/A,,Unknown,300,2013-12-18 21:15:00
3:35 PM,19.4,12.2,74,29.63,10.0,NW,9.2,-,N/A,,Unknown,310,2013-12-18 21:35:00
3:55 PM,19.4,12.2,74,29.63,10.0,NNW,8.1,-,N/A,,Unknown,340,2013-12-18 21:55:00
4:15 PM,19.4,12.2,74,29.63,10.0,NNW,8.1,-,N/A,,Unknown,340,2013-12-18 22:15:00
4:35 PM,19.4,12.2,74,29.64,10.0,North,9.2,-,N/A,,Unknown,350,2013-12-18 22:35:00
4:55 PM,19.4,12.2,74,29.66,10.0,NNW,11.5,-,N/A,,Unknown,330,2013-12-18 22:55:00
5:15 PM,19.4,10.4,68,29.68,10.0,NNW,13.8,-,N/A,,Unknown,340,2013-12-18 23:15:00
5:35 PM,17.6,10.4,73,29.70,10.0,NW,18.4,-,N/A,,Unknown,320,2013-12-18 23:35:00
5:55 PM,14.0,8.6,79,29.71,10.0,NNW,18.4,-,N/A,,Unknown,330,2013-12-18 23:55:00
6:15 PM,12.2,6.8,79,29.73,10.0,NNW,21.9,-,N/A,,Unknown,330,2013-12-19 00:15:00
6:35 PM,12.2,6.8,79,29.73,10.0,NNW,19.6,-,N/A,,Unknown,330,2013-12-19 00:35:00
6:55 PM,12.2,6.8,79,29.76,10.0,NNW,17.3,-,N/A,,Unknown,330,2013-12-19 00:55:00
7:15 PM,12.2,5.0,73,29.77,10.0,NNW,16.1,-,N/A,,Unknown,340,2013-12-19 01:15:00
7:35 PM,12.2,6.8,79,29.79,10.0,NNW,17.3,-,N/A,,Unknown,340,2013-12-19 01:35:00
7:55 PM,10.4,3.2,73,29.80,10.0,NNW,19.6,-,N/A,,Unknown,330,2013-12-19 01:55:00
8:15 PM,10.4,3.2,73,29.82,10.0,North,16.1,-,N/A,,Unknown,350,2013-12-19 02:15:00
8:35 PM,8.6,1.4,73,29.84,10.0,North,17.3,24.2,N/A,,Unknown,350,2013-12-19 02:35:00
8:55 PM,8.6,-0.4,67,29.85,10.0,NNW,18.4,-,N/A,,Unknown,340,2013-12-19 02:55:00
9:15 PM,6.8,1.4,79,29.87,10.0,North,16.1,24.2,N/A,,Unknown,350,2013-12-19 03:15:00
9:35 PM,6.8,-0.4,72,29.89,10.0,NNW,15.0,-,N/A,,Unknown,340,2013-12-19 03:35:00
9:55 PM,6.8,-0.4,72,29.90,10.0,NNW,17.3,-,N/A,,Unknown,330,2013-12-19 03:55:00
10:15 PM,5.0,-0.4,78,29.92,10.0,NNW,16.1,20.7,N/A,,Unknown,330,2013-12-19 04:15:00
10:35 PM,3.2,-2.2,78,29.93,10.0,NNW,20.7,26.5,N/A,,Unknown,340,2013-12-19 04:35:00
10:55 PM,3.2,-5.8,66,29.95,10.0,NNW,16.1,-,N/A,,Unknown,330,2013-12-19 04:55:00
11:15 PM,1.4,-5.8,72,29.96,10.0,NNW,13.8,-,N/A,,Unknown,330,2013-12-19 05:15:00
11:35 PM,1.4,-5.8,72,29.97,10.0,NNW,13.8,-,N/A,,Unknown,330,2013-12-19 05:35:00
11:55 PM,-0.4,-7.6,72,29.99,10.0,NNW,16.1,-,N/A,,Unknown,330,2013-12-19 05:55:00